Regional Weather Roundup
Issued by NWS

Home | Current Version | Previous Version | Text Only | Print | Product List | Glossary On
Versions: 1 2 3 4 5 6 7 8 9 10 11 12 13 14 15 16 17 18 19 20 21 22 23 24 25 26 27 28 29 30 31 32 33 34 35 36 37 38 39 40 41 42 43 44 45 46 47 48 49 50
000
ASCA44 KEWX 090520
RWRMX

LATIN AMERICA AND CARIBBEAN REGIONAL WEATHER ROUNDUP
NATIONAL WEATHER SERVICE AUSTIN/SAN ANTONIO TX
1100 PM CST THU DEC 08 2016

NOTE: "FAIR" INDICATED FEW OR NO CLOUDS BELOW 12,000 FEET WITH NO
SIGNIFICANT WEATHER AND/OR OBSTRUCTIONS TO VISIBILITY.

BAJA CALIFORNIA

CITY           SKY/WX    TMP DP  RH WIND       PRES   REMARKS
LA PAZ         CLEAR     63  54  72 NE5       30.09S
MEXICALI       CLEAR     54  23  30 N3        30.22R
S.J. DEL CABO  CLEAR     64  54  68 W7        30.07S
TIJUANA        PTCLDY    54  46  76 CALM      30.26F

NORTHWESTERN MEXICO

CITY           SKY/WX    TMP DP  RH WIND       PRES   REMARKS
CULIACAN       CLEAR     63  55  77 CALM      30.00R
HERMOSILLO     CLEAR     61  45  55 CALM      30.13S
LOS MOCHIS     CLEAR     64  57  77 NW12      30.04S

NORTHEASTERN MEXICO

CITY           SKY/WX    TMP DP  RH WIND       PRES   REMARKS
MONCLOVA         N/A    N/A N/A N/A MISG        N/A
MONTERREY      CLOUDY    43  36  75 NW18      30.55R WCI  34
REYNOSA        DRIZZLE   41  37  87 NW9G21    30.56R WCI  35
CD. VICTORIA     N/A    N/A N/A N/A MISG        N/A

WESTERN MEXICO

CITY           SKY/WX    TMP DP  RH WIND       PRES   REMARKS
AGUASCALIENTES CLEAR     57  32  38 E3        30.32R
COLIMA           N/A    N/A N/A N/A MISG        N/A
DEL BAJIO      CLEAR     55  39  54 CALM      30.36R
GUADALAJARA    CLEAR     57  46  67 SW3       30.23S
MAZATLAN       CLEAR     59  57  94 CALM      30.00R
P. VALLARTA    CLEAR     68  66  94 NE3       29.99S
URUAPAN          N/A    N/A N/A N/A MISG        N/A
ZACATECAS      CLEAR     52  23  32 E5        30.37R

CENTRAL MEXICO

CITY           SKY/WX    TMP DP  RH WIND       PRES   REMARKS
CUERNAVACA       N/A    N/A N/A N/A MISG        N/A
MEXICO CITY    PTCLDY    61  48  63 NW7       30.43R
MORELIA        CLEAR     52  43  71 CALM      30.30S
POZA RICA        N/A    N/A N/A N/A MISG        N/A
QUERETARO      PTCLDY    54  50  87 E5        30.42R
S. LUIS POTOSI MOCLDY    55  48  76 E7        30.36R
TAMPICO        CLOUDY    59  52  77 N23       30.33R
TOLUCA         PTCLDY    52  45  76 CALM      30.47F

SOUTHERN MEXICO

CITY           SKY/WX    TMP DP  RH WIND       PRES   REMARKS
ACAPULCO       PTCLDY    81  75  83 CALM      29.96
B. DE HUATULCO MOCLDY    77  64  65 CALM      30.04S
P. ESCONDIDO     N/A    N/A N/A N/A MISG        N/A
VERACRUZ       CLOUDY    72  70  94 N23G35    30.13S

YUCATAN PENINSULA

CITY           SKY/WX    TMP DP  RH WIND       PRES   REMARKS
CAMPECHE         N/A    N/A N/A N/A MISG        N/A
CANCUN         PTCLDY    75  72  88 E3        30.08F
CHETUMAL         N/A    N/A N/A N/A MISG        N/A
CD. DEL CARMEN   N/A    N/A N/A N/A MISG        N/A
COZUMEL        CLEAR     72  70  94 CALM      30.06R
MERIDA         LGT RAIN  75  73  94 N5        30.08R
MINATITLAN       N/A    N/A N/A N/A MISG        N/A
TAPACHULA        N/A    N/A N/A N/A MISG        N/A
TUX. GUTIERREZ CLEAR     75  66  73 W8        30.05R

CENTRAL AMERICA

CITY           SKY/WX    TMP DP  RH WIND       PRES   REMARKS
MANAGUA        PTCLDY    75  70  83 E5        29.92S

CARIBBEAN

CITY           SKY/WX    TMP DP  RH WIND       PRES   REMARKS
ARUBA          SHOWER    81  75  83 E9        29.89S
CURACAO        PTCLDY    81  73  78 E10       29.89S
KINGSTON       PTCLDY    81  73  78 SE5       29.97S
NASSAU         PTCLDY    75  72  88 CALM      30.09F
SAN JUAN       MOCLDY    79  73  83 SW3       30.01F
SANTO DOMINGO  PTCLDY    72  68  88 N5        30.00F
ST. CROIX      CLOUDY    81  73  78 NE10      30.00
ST. MAARTEN    PTCLDY    81  75  83 E14       30.00S
ST. THOMAS     PTCLDY    79  72  78 E8        30.01

$$





USA.gov is the U.S. government's official web portal to all federal, state and local government web resources and services.